Time,TemperatureF,DewpointF,PressureIn,WindDirection,WindDirectionDegrees,WindSpeedMPH,WindSpeedGustMPH,Humidity,HourlyPrecipIn,Conditions,Clouds,dailyrainin,SoftwareType,DateUTC
2013-05-17 00:14:00,65.7,60.0,29.80,SE,134,0.0,2.0,83,0.00,,,0.00,weatherlink.com 1.10,2013-05-17 05:14:00,
2013-05-17 00:29:00,65.4,61.0,29.79,SE,134,0.0,2.0,84,0.00,,,0.00,weatherlink.com 1.10,2013-05-17 05:29:00,
2013-05-17 00:44:00,65.0,60.0,29.80,SE,134,0.0,4.0,85,0.00,,,0.00,weatherlink.com 1.10,2013-05-17 05:44:00,
2013-05-17 00:59:00,64.7,61.0,29.79,SE,134,0.0,4.0,86,0.00,,,0.00,weatherlink.com 1.10,2013-05-17 05:59:00,
2013-05-17 01:14:00,64.3,60.0,29.80,SE,135,0.0,6.0,87,0.00,,,0.00,weatherlink.com 1.10,2013-05-17 06:14:00,
2013-05-17 01:29:00,64.2,61.0,29.80,SE,136,0.0,5.0,88,0.00,,,0.00,weatherlink.com 1.10,2013-05-17 06:29:00,
2013-05-17 01:44:00,64.3,61.0,29.80,SE,138,0.0,6.0,88,0.00,,,0.00,weatherlink.com 1.10,2013-05-17 06:44:00,
2013-05-17 01:59:00,64.3,61.0,29.80,SE,140,0.0,7.0,89,0.00,,,0.00,weatherlink.com 1.10,2013-05-17 06:59:00,
2013-05-17 02:14:00,64.6,61.0,29.80,SE,142,0.0,6.0,89,0.00,,,0.00,weatherlink.com 1.10,2013-05-17 07:14:00,
2013-05-17 02:29:00,64.5,61.0,29.79,SE,142,0.0,6.0,89,0.00,,,0.00,weatherlink.com 1.10,2013-05-17 07:29:00,
2013-05-17 02:44:00,64.4,61.0,29.80,SE,142,0.0,6.0,89,0.00,,,0.00,weatherlink.com 1.10,2013-05-17 07:44:00,
2013-05-17 02:59:00,64.3,61.0,29.81,SE,142,3.0,6.0,89,0.00,,,0.00,weatherlink.com 1.10,2013-05-17 07:59:00,
2013-05-17 03:14:00,64.1,61.0,29.81,SE,142,0.0,0.0,89,0.00,,,0.00,weatherlink.com 1.10,2013-05-17 08:14:00,
2013-05-17 03:29:00,63.6,60.0,29.82,SE,142,0.0,0.0,89,0.00,,,0.00,weatherlink.com 1.10,2013-05-17 08:29:00,
2013-05-17 03:44:00,63.3,60.0,29.82,SE,142,0.0,0.0,89,0.00,,,0.00,weatherlink.com 1.10,2013-05-17 08:44:00,
2013-05-17 03:59:00,62.8,60.0,29.82,SE,142,0.0,4.0,89,0.00,,,0.00,weatherlink.com 1.10,2013-05-17 08:59:00,
2013-05-17 04:14:00,62.3,59.0,29.83,SE,142,0.0,5.0,90,0.00,,,0.00,weatherlink.com 1.10,2013-05-17 09:14:00,
2013-05-17 04:29:00,62.3,60.0,29.83,SE,142,0.0,4.0,92,0.00,,,0.00,weatherlink.com 1.10,2013-05-17 09:29:00,
2013-05-17 04:44:00,62.7,60.0,29.83,SE,142,0.0,6.0,92,0.00,,,0.00,weatherlink.com 1.10,2013-05-17 09:44:00,
2013-05-17 04:59:00,62.6,60.0,29.83,SE,142,0.0,0.0,92,0.00,,,0.00,weatherlink.com 1.10,2013-05-17 09:59:00,
2013-05-17 05:14:00,62.4,60.0,29.83,SE,142,0.0,2.0,92,0.00,,,0.00,weatherlink.com 1.10,2013-05-17 10:14:00,
2013-05-17 05:29:00,62.3,60.0,29.84,SE,142,0.0,1.0,92,0.00,,,0.00,weatherlink.com 1.10,2013-05-17 10:29:00,
2013-05-17 05:44:00,62.3,60.0,29.84,SE,142,0.0,4.0,92,0.00,,,0.00,weatherlink.com 1.10,2013-05-17 10:44:00,
2013-05-17 05:59:00,62.2,60.0,29.84,SE,142,0.0,5.0,92,0.00,,,0.00,weatherlink.com 1.10,2013-05-17 10:59:00,
2013-05-17 06:14:00,62.0,60.0,29.84,SE,142,0.0,0.0,92,0.00,,,0.00,weatherlink.com 1.10,2013-05-17 11:14:00,
2013-05-17 06:29:00,61.7,59.0,29.84,SE,142,0.0,0.0,92,0.00,,,0.00,weatherlink.com 1.10,2013-05-17 11:29:00,
2013-05-17 06:45:00,61.6,60.0,29.84,SE,142,0.0,4.0,93,0.00,,,0.00,weatherlink.com 1.10,2013-05-17 11:45:00,
2013-05-17 07:00:00,61.8,60.0,29.85,SE,142,3.0,7.0,93,0.00,,,0.00,weatherlink.com 1.10,2013-05-17 12:00:00,
2013-05-17 07:15:00,62.5,61.0,29.85,SE,142,0.0,5.0,93,0.00,,,0.00,weatherlink.com 1.10,2013-05-17 12:15:00,
2013-05-17 07:30:00,63.2,61.0,29.86,SE,142,0.0,1.0,93,0.00,,,0.00,weatherlink.com 1.10,2013-05-17 12:30:00,
2013-05-17 07:45:00,64.2,62.0,29.86,SE,142,0.0,6.0,92,0.00,,,0.00,weatherlink.com 1.10,2013-05-17 12:45:00,
2013-05-17 08:00:00,65.9,63.0,29.86,SE,143,1.0,7.0,90,0.00,,,0.00,weatherlink.com 1.10,2013-05-17 13:00:00,
2013-05-17 08:15:00,68.1,64.0,29.87,SE,146,0.0,8.0,86,0.00,,,0.00,weatherlink.com 1.10,2013-05-17 13:15:00,
2013-05-17 08:30:00,68.8,64.0,29.87,SSE,147,0.0,7.0,83,0.00,,,0.00,weatherlink.com 1.10,2013-05-17 13:30:00,
2013-05-17 08:45:00,70.1,64.0,29.87,SSE,159,3.0,9.0,82,0.00,,,0.00,weatherlink.com 1.10,2013-05-17 13:45:00,
2013-05-17 09:00:00,72.4,65.0,29.87,SSE,162,0.0,8.0,78,0.00,,,0.00,weatherlink.com 1.10,2013-05-17 14:00:00,
2013-05-17 09:15:00,72.9,66.0,29.87,South,172,3.0,10.0,78,0.00,,,0.00,weatherlink.com 1.10,2013-05-17 14:15:00,
2013-05-17 09:30:00,73.3,65.0,29.88,South,175,3.0,11.0,74,0.00,,,0.00,weatherlink.com 1.10,2013-05-17 14:30:00,
2013-05-17 09:45:00,72.5,65.0,29.87,SSE,167,0.0,9.0,78,0.00,,,0.00,weatherlink.com 1.10,2013-05-17 14:45:00,
2013-05-17 10:00:00,74.6,66.0,29.87,SSE,167,0.0,10.0,74,0.00,,,0.00,weatherlink.com 1.10,2013-05-17 15:00:00,
2013-05-17 10:15:00,74.9,66.0,29.86,SE,126,9.0,10.0,74,0.00,,,0.00,weatherlink.com 1.10,2013-05-17 15:15:00,
2013-05-17 10:30:00,75.2,66.0,29.87,SE,134,1.0,16.0,72,0.00,,,0.00,weatherlink.com 1.10,2013-05-17 15:30:00,
2013-05-17 10:45:00,75.5,65.0,29.87,SSE,149,0.0,10.0,70,0.00,,,0.00,weatherlink.com 1.10,2013-05-17 15:45:00,
2013-05-17 11:00:00,76.1,66.0,29.87,South,174,0.0,13.0,71,0.00,,,0.00,weatherlink.com 1.10,2013-05-17 16:00:00,
2013-05-17 11:15:00,75.4,65.0,29.87,SE,140,0.0,10.0,69,0.00,,,0.00,weatherlink.com 1.10,2013-05-17 16:15:00,
2013-05-17 11:30:00,75.7,65.0,29.87,South,170,4.0,10.0,69,0.00,,,0.00,weatherlink.com 1.10,2013-05-17 16:30:00,
2013-05-17 11:45:00,75.8,64.0,29.87,South,175,0.0,9.0,68,0.00,,,0.00,weatherlink.com 1.10,2013-05-17 16:45:00,
2013-05-17 12:00:00,75.4,64.0,29.87,SSE,154,0.0,13.0,68,0.00,,,0.00,weatherlink.com 1.10,2013-05-17 17:00:00,
2013-05-17 12:15:00,77.3,65.0,29.87,SE,127,0.0,13.0,67,0.00,,,0.00,weatherlink.com 1.10,2013-05-17 17:15:00,
2013-05-17 12:30:00,78.2,65.0,29.87,SSE,154,1.0,8.0,65,0.00,,,0.00,weatherlink.com 1.10,2013-05-17 17:30:00,
2013-05-17 12:45:00,77.3,65.0,29.86,East,101,0.0,14.0,67,0.00,,,0.00,weatherlink.com 1.10,2013-05-17 17:45:00,
2013-05-17 13:00:00,78.4,66.0,29.85,SE,131,12.0,15.0,65,0.00,,,0.00,weatherlink.com 1.10,2013-05-17 18:00:00,
2013-05-17 13:15:00,78.0,65.0,29.85,ESE,111,0.0,14.0,64,0.00,,,0.00,weatherlink.com 1.10,2013-05-17 18:15:00,
2013-05-17 13:30:00,78.8,65.0,29.85,SSE,161,0.0,13.0,62,0.00,,,0.00,weatherlink.com 1.10,2013-05-17 18:30:00,
2013-05-17 13:45:00,79.5,64.0,29.85,SE,146,7.0,12.0,60,0.00,,,0.00,weatherlink.com 1.10,2013-05-17 18:45:00,
2013-05-17 14:00:00,78.9,63.0,29.85,SE,139,9.0,13.0,59,0.00,,,0.00,weatherlink.com 1.10,2013-05-17 19:00:00,
2013-05-17 14:15:00,78.7,65.0,29.85,SE,128,0.0,13.0,63,0.00,,,0.00,weatherlink.com 1.10,2013-05-17 19:15:00,
2013-05-17 14:30:00,79.0,64.0,29.85,SE,136,3.0,14.0,61,0.00,,,0.00,weatherlink.com 1.10,2013-05-17 19:30:00,
2013-05-17 14:45:00,78.0,63.0,29.85,SE,133,0.0,11.0,60,0.00,,,0.00,weatherlink.com 1.10,2013-05-17 19:45:00,
2013-05-17 15:00:00,78.7,64.0,29.85,South,186,0.0,13.0,61,0.00,,,0.00,weatherlink.com 1.10,2013-05-17 20:00:00,
2013-05-17 15:15:00,80.1,64.0,29.85,SSE,166,0.0,10.0,58,0.00,,,0.00,weatherlink.com 1.10,2013-05-17 20:15:00,
2013-05-17 15:30:00,79.7,64.0,29.84,SE,145,5.0,10.0,58,0.00,,,0.00,weatherlink.com 1.10,2013-05-17 20:30:00,
2013-05-17 15:45:00,79.0,63.0,29.84,ESE,113,0.0,10.0,58,0.00,,,0.00,weatherlink.com 1.10,2013-05-17 20:45:00,
2013-05-17 16:00:00,79.4,63.0,29.84,SE,134,0.0,9.0,58,0.00,,,0.00,weatherlink.com 1.10,2013-05-17 21:00:00,
2013-05-17 16:15:00,79.1,63.0,29.83,SE,139,0.0,13.0,59,0.00,,,0.00,weatherlink.com 1.10,2013-05-17 21:15:00,
2013-05-17 16:30:00,80.3,64.0,29.84,South,174,1.0,11.0,58,0.00,,,0.00,weatherlink.com 1.10,2013-05-17 21:30:00,
2013-05-17 16:45:00,80.0,64.0,29.83,SE,136,2.0,10.0,59,0.00,,,0.00,weatherlink.com 1.10,2013-05-17 21:45:00,
2013-05-17 17:00:00,80.0,64.0,29.83,ESE,119,0.0,15.0,58,0.00,,,0.00,weatherlink.com 1.10,2013-05-17 22:00:00,
2013-05-17 17:15:00,79.7,63.0,29.83,South,170,1.0,12.0,57,0.00,,,0.00,weatherlink.com 1.10,2013-05-17 22:15:00,
2013-05-17 17:30:00,78.9,64.0,29.83,SE,140,0.0,16.0,60,0.00,,,0.00,weatherlink.com 1.10,2013-05-17 22:30:00,
2013-05-17 17:45:00,78.1,63.0,29.83,SE,131,8.0,13.0,61,0.00,,,0.00,weatherlink.com 1.10,2013-05-17 22:45:00,
2013-05-17 18:00:00,78.3,63.0,29.82,SSE,156,0.0,12.0,60,0.00,,,0.00,weatherlink.com 1.10,2013-05-17 23:00:00,
2013-05-17 18:15:00,78.5,63.0,29.82,SE,137,0.0,13.0,60,0.00,,,0.00,weatherlink.com 1.10,2013-05-17 23:15:00,
2013-05-17 18:31:00,77.9,63.0,29.83,SE,138,0.0,12.0,60,0.00,,,0.00,weatherlink.com 1.10,2013-05-17 23:31:00,
2013-05-17 18:46:00,76.9,62.0,29.83,SE,136,0.0,9.0,60,0.00,,,0.00,weatherlink.com 1.10,2013-05-17 23:46:00,
2013-05-17 19:01:00,76.5,63.0,29.83,SE,125,0.0,12.0,63,0.00,,,0.00,weatherlink.com 1.10,2013-05-18 00:01:00,
2013-05-17 19:16:00,75.9,63.0,29.84,ESE,116,8.0,12.0,65,0.00,,,0.00,weatherlink.com 1.10,2013-05-18 00:16:00,
2013-05-17 19:31:00,75.6,63.0,29.84,ESE,109,3.0,7.0,66,0.00,,,0.00,weatherlink.com 1.10,2013-05-18 00:31:00,
2013-05-17 19:46:00,75.2,63.0,29.85,ESE,123,0.0,8.0,65,0.00,,,0.00,weatherlink.com 1.10,2013-05-18 00:46:00,
2013-05-17 20:01:00,75.0,63.0,29.86,SE,125,0.0,4.0,66,0.00,,,0.00,weatherlink.com 1.10,2013-05-18 01:01:00,
2013-05-17 20:16:00,74.3,63.0,29.86,SE,125,0.0,0.0,68,0.00,,,0.00,weatherlink.com 1.10,2013-05-18 01:16:00,
2013-05-17 20:31:00,73.5,63.0,29.86,SE,125,0.0,0.0,69,0.00,,,0.00,weatherlink.com 1.10,2013-05-18 01:31:00,
2013-05-17 20:46:00,72.5,63.0,29.85,SE,125,0.0,1.0,71,0.00,,,0.00,weatherlink.com 1.10,2013-05-18 01:46:00,
2013-05-17 21:01:00,71.1,62.0,29.85,SE,125,0.0,3.0,73,0.00,,,0.00,weatherlink.com 1.10,2013-05-18 02:01:00,
2013-05-17 21:16:00,70.1,62.0,29.86,SE,125,0.0,3.0,75,0.00,,,0.00,weatherlink.com 1.10,2013-05-18 02:16:00,
2013-05-17 21:31:00,69.1,62.0,29.85,SE,125,0.0,5.0,77,0.00,,,0.00,weatherlink.com 1.10,2013-05-18 02:31:00,
2013-05-17 21:46:00,68.2,61.0,29.86,SE,125,0.0,7.0,78,0.00,,,0.00,weatherlink.com 1.10,2013-05-18 02:46:00,
2013-05-17 22:01:00,67.6,61.0,29.86,SE,125,0.0,1.0,80,0.00,,,0.00,weatherlink.com 1.10,2013-05-18 03:01:00,
2013-05-17 22:16:00,67.1,61.0,29.87,SE,125,3.0,4.0,81,0.00,,,0.00,weatherlink.com 1.10,2013-05-18 03:16:00,
2013-05-17 22:31:00,66.5,61.0,29.87,SE,126,0.0,8.0,82,0.00,,,0.00,weatherlink.com 1.10,2013-05-18 03:31:00,
2013-05-17 22:46:00,66.2,61.0,29.88,SE,126,0.0,5.0,82,0.00,,,0.00,weatherlink.com 1.10,2013-05-18 03:46:00,
2013-05-17 23:01:00,66.0,61.0,29.88,SE,126,0.0,3.0,83,0.00,,,0.00,weatherlink.com 1.10,2013-05-18 04:01:00,
2013-05-17 23:16:00,65.8,61.0,29.88,SE,126,0.0,0.0,83,0.00,,,0.00,weatherlink.com 1.10,2013-05-18 04:16:00,
2013-05-17 23:31:00,65.5,60.0,29.88,SE,126,0.0,0.0,83,0.00,,,0.00,weatherlink.com 1.10,2013-05-18 04:31:00,
2013-05-17 23:46:00,65.0,60.0,29.89,SE,126,0.0,0.0,84,0.00,,,0.00,weatherlink.com 1.10,2013-05-18 04:46:00,